SCP
-0 -0 -0 -0 -0 0 0 -0 -0 -0 -0 -0 -0 -0 0 -0 -0 -0 -0 0 -0 -0
-0 -0 -0 0 -0 0 0 0 -0 -0 -0 -0 -0 -0 -0 -0 -0 -0 -0 -0 -0 -0
0 -0 -0 -0 0 -0 -0 -0 0 -0 -0 -0 -0 -0 -0 -0 -0 0 0 0 -0 -0
0 -0 -0 -0 0 0 -0 -0 -0 0 -0 -0 -0 -0 -0 -0 -0 -0 0 0 0 0
0 0 -0 -0 0 0 0 0 0 0 -0 -0 -0 -0 -0 -0 0 -0 0 0 0 0
0 0 0 0 0 0 0 0 0 0 0 0 0 0 0 -0 0 0 0 -0 0 0
0 0 0 0 0 0 0 0 0 0 0 0 0 0 0 0 0 0 0 0 0 0
0 0 0 0 0 0 0 0 1 0 0 0 0 0 0 0 0 0 0 0 0 0
0 0 0 0 0 0 0 0 0 0 0 0 0 0 0 0 0 0 0 0 0 0
0 0 0 0 0 0 0 0 -0 0 0 0 0 0 0 0 0 0 0 0 0 0
0 1 0 0 0 0 0 0 0 0 0 0 0 0 0 0 0 -0 0 0 0 0
0 1 1 1 1 1 1 0 0 0 0 0 0 0 0 0 -0 -0 -0 0 0 0
-0 0 1 1 1 1 1 1 1 1 0 0 0 0 0 0 0 -0 -0 -0 0 0
-0 -0 1 1 2 2 1 1 1 1 1 1 1 1 0 0 0 -0 0 0 0 0
Wind_Speed_500mb
73 70 61 52 54 48 44 31 19 20 20 16 18 21 19 23 30 31 28 25 27 18
74 76 71 61 50 52 42 29 32 28 24 21 15 18 23 22 24 30 34 30 29 28
79 78 77 69 53 53 45 38 35 34 32 30 26 21 23 23 28 29 29 28 34 35
83 82 81 79 65 57 53 48 44 41 38 43 34 26 28 27 25 27 29 26 26 26
80 87 83 86 80 65 62 60 54 52 42 46 41 31 30 30 32 31 31 28 25 24
78 84 91 85 86 81 71 65 65 62 54 47 45 37 30 30 31 33 37 35 32 30
82 79 84 89 87 90 83 76 68 64 59 53 51 44 36 32 32 34 36 38 39 36
89 81 76 80 92 90 90 88 80 74 70 64 60 57 52 46 41 38 38 40 42 44
94 90 86 82 81 88 96 95 93 86 82 79 75 71 64 56 51 47 45 44 44 44
94 92 89 84 83 85 87 97 103 98 91 89 86 80 73 66 62 58 55 50 47 46
86 94 85 81 76 76 81 86 96 99 100 95 90 82 75 71 69 67 61 57 51 48
73 90 89 79 76 67 66 72 82 89 91 95 92 83 77 70 69 70 67 61 57 55
55 83 87 88 80 74 68 62 63 73 82 85 84 80 76 71 68 70 70 67 65 63
47 77 105 98 88 83 77 73 70 66 66 71 74 76 74 71 70 70 71 70 68 65
Wind_Direction_500mb
209 207 208 211 216 221 218 209 211 189 183 184 198 200 207 196 195 202 198 200 208 212
214 210 208 214 215 216 218 217 209 204 202 200 205 210 210 205 208 210 212 213 218 223
218 213 210 212 217 213 213 213 214 222 230 223 225 232 222 212 212 214 215 224 228 233
223 216 213 213 214 215 213 215 220 225 241 232 228 238 231 225 213 215 208 216 223 228
228 222 216 215 215 216 220 223 229 233 232 223 226 234 235 230 223 221 214 211 221 223
227 227 223 220 218 218 220 222 228 231 229 221 224 231 235 238 235 232 232 233 236 240
230 229 229 227 223 221 223 223 226 229 232 230 234 237 240 249 250 243 241 241 242 243
234 232 231 232 230 227 227 229 228 231 233 236 240 245 250 253 253 254 249 247 247 249
234 235 234 231 233 233 230 230 231 233 234 237 241 247 250 251 254 256 256 254 251 251
241 237 236 236 234 235 233 232 235 236 235 237 241 244 247 250 255 256 256 258 260 256
241 244 238 233 234 234 234 232 232 237 238 239 242 244 247 250 254 255 253 255 258 258
234 243 241 234 232 233 234 234 232 234 238 240 243 245 246 248 248 251 253 253 254 255
251 238 242 239 235 234 235 238 238 237 238 241 244 246 246 246 247 250 252 254 255 256
261 237 242 243 239 238 238 238 240 242 244 246 245 245 246 246 247 249 252 251 254 256
Wind_Speed_850mb
73 70 61 52 54 48 44 31 19 20 20 16 18 21 19 23 30 31 28 25 27 18
74 76 71 61 50 52 42 29 32 28 24 21 15 18 23 22 24 30 34 30 29 28
79 78 77 69 53 53 45 38 35 34 32 30 26 21 23 23 28 29 29 28 34 35
83 82 81 79 65 57 53 48 44 41 38 43 34 26 28 27 25 27 29 26 26 26
80 87 83 86 80 65 62 60 54 52 42 46 41 31 30 30 32 31 31 28 25 24
78 84 91 85 86 81 71 65 65 62 54 47 45 37 30 30 31 33 37 35 32 30
82 79 84 89 87 90 83 76 68 64 59 53 51 44 36 32 32 34 36 38 39 36
89 81 76 80 92 90 90 88 80 74 70 64 60 57 52 46 41 38 38 40 42 44
94 90 86 82 81 88 96 95 93 86 82 79 75 71 64 56 51 47 45 44 44 44
94 92 89 84 83 85 87 97 103 98 91 89 86 80 73 66 62 58 55 50 47 46
86 94 85 81 76 76 81 86 96 99 100 95 90 82 75 71 69 67 61 57 51 48
73 90 89 79 76 67 66 72 82 89 91 95 92 83 77 70 69 70 67 61 57 55
55 83 87 88 80 74 68 62 63 73 82 85 84 80 76 71 68 70 70 67 65 63
47 77 105 98 88 83 77 73 70 66 66 71 74 76 74 71 70 70 71 70 68 65
Wind_Direction_850mb
209 207 208 211 216 221 218 209 211 189 183 184 198 200 207 196 195 202 198 200 208 212
214 210 208 214 215 216 218 217 209 204 202 200 205 210 210 205 208 210 212 213 218 223
218 213 210 212 217 213 213 213 214 222 230 223 225 232 222 212 212 214 215 224 228 233
223 216 213 213 214 215 213 215 220 225 241 232 228 238 231 225 213 215 208 216 223 228
228 222 216 215 215 216 220 223 229 233 232 223 226 234 235 230 223 221 214 211 221 223
227 227 223 220 218 218 220 222 228 231 229 221 224 231 235 238 235 232 232 233 236 240
230 229 229 227 223 221 223 223 226 229 232 230 234 237 240 249 250 243 241 241 242 243
234 232 231 232 230 227 227 229 228 231 233 236 240 245 250 253 253 254 249 247 247 249
234 235 234 231 233 233 230 230 231 233 234 237 241 247 250 251 254 256 256 254 251 251
241 237 236 236 234 235 233 232 235 236 235 237 241 244 247 250 255 256 256 258 260 256
241 244 238 233 234 234 234 232 232 237 238 239 242 244 247 250 254 255 253 255 258 258
234 243 241 234 232 233 234 234 232 234 238 240 243 245 246 248 248 251 253 253 254 255
251 238 242 239 235 234 235 238 238 237 238 241 244 246 246 246 247 250 252 254 255 256
261 237 242 243 239 238 238 238 240 242 244 246 245 245 246 246 247 249 252 251 254 256